Year,Month,Day,Hour,Minute,Value (Times are PST for temperature in C)
2017,04,04,00,00,5.80
2017,04,04,00,01,5.80
2017,04,04,00,02,5.70
2017,04,04,00,03,5.70
2017,04,04,00,04,5.70
2017,04,04,00,05,5.70
2017,04,04,00,06,5.60
2017,04,04,00,07,5.60
2017,04,04,00,08,5.50
2017,04,04,00,09,5.50
2017,04,04,00,10,5.40
2017,04,04,00,11,5.40
2017,04,04,00,12,5.40
2017,04,04,00,13,5.40
2017,04,04,00,14,5.40
2017,04,04,00,15,5.40
2017,04,04,00,16,5.30
2017,04,04,00,17,5.30
2017,04,04,00,18,5.30
2017,04,04,00,19,5.30
2017,04,04,00,20,5.30
2017,04,04,00,21,5.30
2017,04,04,00,22,5.30
2017,04,04,00,23,5.30
2017,04,04,00,24,5.30
2017,04,04,00,25,5.20
2017,04,04,00,26,5.20
2017,04,04,00,27,5.20
2017,04,04,00,28,5.20
2017,04,04,00,29,5.20
2017,04,04,00,30,5.20
2017,04,04,00,31,5.20
2017,04,04,00,32,5.10
2017,04,04,00,33,5.10
2017,04,04,00,34,5.10
2017,04,04,00,35,5.10
2017,04,04,00,36,5.10
2017,04,04,00,37,5.10
2017,04,04,00,38,5.10
2017,04,04,00,39,5.00
2017,04,04,00,40,5.00
2017,04,04,00,41,5.00
2017,04,04,00,42,5.00
2017,04,04,00,43,4.90
2017,04,04,00,44,4.90
2017,04,04,00,45,4.90
2017,04,04,00,46,4.90
2017,04,04,00,47,4.90
2017,04,04,00,48,4.90
2017,04,04,00,49,5.00
2017,04,04,00,50,5.00
2017,04,04,00,51,5.00
2017,04,04,00,52,5.10
2017,04,04,00,53,5.10
2017,04,04,00,54,5.10
2017,04,04,00,55,5.10
2017,04,04,00,56,5.10
2017,04,04,00,57,5.10
2017,04,04,00,58,5.10
2017,04,04,00,59,5.10
2017,04,04,01,00,5.10
2017,04,04,01,01,5.10
2017,04,04,01,02,5.10
2017,04,04,01,03,5.10
2017,04,04,01,04,5.10
2017,04,04,01,05,5.10
2017,04,04,01,06,5.10
2017,04,04,01,07,5.20
2017,04,04,01,08,5.20
2017,04,04,01,09,5.20
2017,04,04,01,10,5.20
2017,04,04,01,11,5.20
2017,04,04,01,12,5.10
2017,04,04,01,13,5.10
2017,04,04,01,14,5.10
2017,04,04,01,15,5.10
2017,04,04,01,16,5.10
2017,04,04,01,17,5.10
2017,04,04,01,18,5.10
2017,04,04,01,19,5.10
2017,04,04,01,20,5.10
2017,04,04,01,21,5.10
2017,04,04,01,22,5.10
2017,04,04,01,23,5.20
2017,04,04,01,24,5.20
2017,04,04,01,25,5.20
2017,04,04,01,26,5.20
2017,04,04,01,27,5.20
2017,04,04,01,28,5.20
2017,04,04,01,29,5.20
2017,04,04,01,30,5.20
2017,04,04,01,31,5.20
2017,04,04,01,32,5.20
2017,04,04,01,33,5.20
2017,04,04,01,34,5.20
2017,04,04,01,35,5.20
2017,04,04,01,36,5.20
2017,04,04,01,37,5.20
2017,04,04,01,38,5.20
2017,04,04,01,39,5.20
2017,04,04,01,40,5.20
2017,04,04,01,41,5.20
2017,04,04,01,42,5.20
2017,04,04,01,43,5.20
2017,04,04,01,44,5.20
2017,04,04,01,45,5.20
2017,04,04,01,46,5.20
2017,04,04,01,47,5.20
2017,04,04,01,48,5.20
2017,04,04,01,49,5.20
2017,04,04,01,50,5.20
2017,04,04,01,51,5.10
2017,04,04,01,52,5.10
2017,04,04,01,53,5.10
2017,04,04,01,54,5.10
2017,04,04,01,55,5.10
2017,04,04,01,56,5.10
2017,04,04,01,57,5.10
2017,04,04,01,58,5.10
2017,04,04,01,59,5.10
2017,04,04,02,00,5.10
2017,04,04,02,01,5.10
2017,04,04,02,02,5.10
2017,04,04,02,03,5.10
2017,04,04,02,04,5.10
2017,04,04,02,05,5.10
2017,04,04,02,06,5.10
2017,04,04,02,07,5.10
2017,04,04,02,08,5.10
2017,04,04,02,09,5.10
2017,04,04,02,10,5.10
2017,04,04,02,11,5.10
2017,04,04,02,12,5.10
2017,04,04,02,13,5.10
2017,04,04,02,14,5.10
2017,04,04,02,15,5.10
2017,04,04,02,16,5.10
2017,04,04,02,17,5.10
2017,04,04,02,18,5.10
2017,04,04,02,19,5.20
2017,04,04,02,20,5.20
2017,04,04,02,21,5.20
2017,04,04,02,22,5.20
2017,04,04,02,23,5.20
2017,04,04,02,24,5.20
2017,04,04,02,25,5.20
2017,04,04,02,26,5.20
2017,04,04,02,27,5.20
2017,04,04,02,28,5.20
2017,04,04,02,29,5.20
2017,04,04,02,30,5.20
2017,04,04,02,31,5.20
2017,04,04,02,32,5.20
2017,04,04,02,33,5.20
2017,04,04,02,34,5.20
2017,04,04,02,35,5.20
2017,04,04,02,36,5.20
2017,04,04,02,37,5.20
2017,04,04,02,38,5.20
2017,04,04,02,39,5.20
2017,04,04,02,40,5.10
2017,04,04,02,41,5.10
2017,04,04,02,42,5.10
2017,04,04,02,43,5.10
2017,04,04,02,44,5.10
2017,04,04,02,45,5.10
2017,04,04,02,46,5.00
2017,04,04,02,47,5.00
2017,04,04,02,48,5.00
2017,04,04,02,49,5.00
2017,04,04,02,50,5.00
2017,04,04,02,51,5.10
2017,04,04,02,52,5.00
2017,04,04,02,53,5.10
2017,04,04,02,54,5.10
2017,04,04,02,55,5.10
2017,04,04,02,56,5.10
2017,04,04,02,57,5.10
2017,04,04,02,58,5.10
2017,04,04,02,59,5.10
2017,04,04,03,00,5.10
2017,04,04,03,01,5.10
2017,04,04,03,02,5.10
2017,04,04,03,03,5.10
2017,04,04,03,04,5.10
2017,04,04,03,05,5.10
2017,04,04,03,06,5.10
2017,04,04,03,07,5.10
2017,04,04,03,08,5.10
2017,04,04,03,09,5.20
2017,04,04,03,10,5.10
2017,04,04,03,11,5.20
2017,04,04,03,12,5.20
2017,04,04,03,13,5.20
2017,04,04,03,14,5.20
2017,04,04,03,15,5.20
2017,04,04,03,16,5.20
2017,04,04,03,17,5.20
2017,04,04,03,18,5.20
2017,04,04,03,19,5.20
2017,04,04,03,20,5.20
2017,04,04,03,21,5.20
2017,04,04,03,22,5.20
2017,04,04,03,23,5.20
2017,04,04,03,24,5.20
2017,04,04,03,25,5.30
2017,04,04,03,26,5.30
2017,04,04,03,27,5.30
2017,04,04,03,28,5.30
2017,04,04,03,29,5.30
2017,04,04,03,30,5.30
2017,04,04,03,31,5.30
2017,04,04,03,32,5.30
2017,04,04,03,33,5.30
2017,04,04,03,34,5.30
2017,04,04,03,35,5.30
2017,04,04,03,36,5.40
2017,04,04,03,37,5.40
2017,04,04,03,38,5.40
2017,04,04,03,39,5.40
2017,04,04,03,40,5.40
2017,04,04,03,41,5.40
2017,04,04,03,42,5.40
2017,04,04,03,43,5.40
2017,04,04,03,44,5.50
2017,04,04,03,45,5.50
2017,04,04,03,46,5.50
2017,04,04,03,47,5.60
2017,04,04,03,48,5.60
2017,04,04,03,49,5.60
2017,04,04,03,50,5.60
2017,04,04,03,51,5.60
2017,04,04,03,52,5.60
2017,04,04,03,53,5.60
2017,04,04,03,54,5.60
2017,04,04,03,55,5.60
2017,04,04,03,56,5.60
2017,04,04,03,57,5.60
2017,04,04,03,58,5.60
2017,04,04,03,59,5.60
2017,04,04,04,00,5.60
2017,04,04,04,01,5.70
2017,04,04,04,02,5.60
2017,04,04,04,03,5.60
2017,04,04,04,04,5.70
2017,04,04,04,05,5.70
2017,04,04,04,06,5.70
2017,04,04,04,07,5.70
2017,04,04,04,08,5.70
2017,04,04,04,09,5.70
2017,04,04,04,10,5.60
2017,04,04,04,11,5.60
2017,04,04,04,12,5.60
2017,04,04,04,13,5.60
2017,04,04,04,14,5.60
2017,04,04,04,15,5.60
2017,04,04,04,16,5.60
2017,04,04,04,17,5.60
2017,04,04,04,18,5.50
2017,04,04,04,19,5.50
2017,04,04,04,20,5.50
2017,04,04,04,21,5.50
2017,04,04,04,22,5.50
2017,04,04,04,23,5.40
2017,04,04,04,24,5.40
2017,04,04,04,25,5.40
2017,04,04,04,26,5.40
2017,04,04,04,27,5.40
2017,04,04,04,28,5.40
2017,04,04,04,29,5.40
2017,04,04,04,30,5.40
2017,04,04,04,31,5.40
2017,04,04,04,32,5.30
2017,04,04,04,33,5.30
2017,04,04,04,34,5.30
2017,04,04,04,35,5.30
2017,04,04,04,36,5.30
2017,04,04,04,37,5.30
2017,04,04,04,38,5.30
2017,04,04,04,39,5.30
2017,04,04,04,40,5.30
2017,04,04,04,41,5.30
2017,04,04,04,42,5.30
2017,04,04,04,43,5.30
2017,04,04,04,44,5.30
2017,04,04,04,45,5.30
2017,04,04,04,46,5.30
2017,04,04,04,47,5.30
2017,04,04,04,48,5.40
2017,04,04,04,49,5.30
2017,04,04,04,50,5.30
2017,04,04,04,51,5.30
2017,04,04,04,52,5.30
2017,04,04,04,53,5.30
2017,04,04,04,54,5.30
2017,04,04,04,55,5.30
2017,04,04,04,56,5.30
2017,04,04,04,57,5.30
2017,04,04,04,58,5.30
2017,04,04,04,59,5.30
2017,04,04,05,00,5.40
2017,04,04,05,01,5.40
2017,04,04,05,02,5.50
2017,04,04,05,03,5.50
2017,04,04,05,04,5.60
2017,04,04,05,05,5.60
2017,04,04,05,06,5.70
2017,04,04,05,07,5.70
2017,04,04,05,08,5.80
2017,04,04,05,09,5.80
2017,04,04,05,10,5.90
2017,04,04,05,11,5.90
2017,04,04,05,12,5.90
2017,04,04,05,13,6.00
2017,04,04,05,14,6.00
2017,04,04,05,15,6.10
2017,04,04,05,16,6.10
2017,04,04,05,17,6.10
2017,04,04,05,18,6.10
2017,04,04,05,19,6.10
2017,04,04,05,20,6.10
2017,04,04,05,21,6.20
2017,04,04,05,22,6.20
2017,04,04,05,23,6.20
2017,04,04,05,24,6.20
2017,04,04,05,25,6.20
2017,04,04,05,26,6.20
2017,04,04,05,27,6.20
2017,04,04,05,28,6.20
2017,04,04,05,29,6.20
2017,04,04,05,30,6.20
2017,04,04,05,31,6.10
2017,04,04,05,32,6.10
2017,04,04,05,33,6.10
2017,04,04,05,34,6.10
2017,04,04,05,35,6.00
2017,04,04,05,36,6.00
2017,04,04,05,37,6.00
2017,04,04,05,38,5.90
2017,04,04,05,39,5.90
2017,04,04,05,40,6.00
2017,04,04,05,41,5.90
2017,04,04,05,42,5.90
2017,04,04,05,43,5.90
2017,04,04,05,44,5.90
2017,04,04,05,45,5.90
2017,04,04,05,46,5.80
2017,04,04,05,47,5.80
2017,04,04,05,48,5.80
2017,04,04,05,49,5.80
2017,04,04,05,50,5.80
2017,04,04,05,51,5.80
2017,04,04,05,52,5.80
2017,04,04,05,53,5.80
2017,04,04,05,54,5.80
2017,04,04,05,55,5.80
2017,04,04,05,56,5.80
2017,04,04,05,57,5.80
2017,04,04,05,58,5.80
2017,04,04,05,59,5.80
2017,04,04,06,00,5.80
2017,04,04,06,01,5.80
2017,04,04,06,02,5.80
2017,04,04,06,03,5.80
2017,04,04,06,04,5.80
2017,04,04,06,05,5.80
2017,04,04,06,06,5.80
2017,04,04,06,07,5.80
2017,04,04,06,08,5.80
2017,04,04,06,09,5.80
2017,04,04,06,10,5.80
2017,04,04,06,11,5.80
2017,04,04,06,12,5.80
2017,04,04,06,13,5.80
2017,04,04,06,14,5.80
2017,04,04,06,15,5.80
2017,04,04,06,16,5.80
2017,04,04,06,17,5.80
2017,04,04,06,18,5.80
2017,04,04,06,19,5.80
2017,04,04,06,20,5.70
2017,04,04,06,21,5.70
2017,04,04,06,22,5.70
2017,04,04,06,23,5.60
2017,04,04,06,24,5.60
2017,04,04,06,25,5.60
2017,04,04,06,26,5.60
2017,04,04,06,27,5.60
2017,04,04,06,28,5.60
2017,04,04,06,29,5.50
2017,04,04,06,30,5.50
2017,04,04,06,31,5.50
2017,04,04,06,32,5.50
2017,04,04,06,33,5.60
2017,04,04,06,34,5.60
2017,04,04,06,35,5.60
2017,04,04,06,36,5.70
2017,04,04,06,37,5.70
2017,04,04,06,38,5.80
2017,04,04,06,39,5.80
2017,04,04,06,40,5.80
2017,04,04,06,41,5.90
2017,04,04,06,42,5.90
2017,04,04,06,43,6.00
2017,04,04,06,44,6.00
2017,04,04,06,45,6.10
2017,04,04,06,46,6.10
2017,04,04,06,47,6.20
2017,04,04,06,48,6.20
2017,04,04,06,49,6.30
2017,04,04,06,50,6.30
2017,04,04,06,51,6.30
2017,04,04,06,52,6.30
2017,04,04,06,53,6.30
2017,04,04,06,54,6.30
2017,04,04,06,55,6.40
2017,04,04,06,56,6.40
2017,04,04,06,57,6.40
2017,04,04,06,58,6.40
2017,04,04,06,59,6.40
2017,04,04,07,00,6.50
2017,04,04,07,01,6.40
2017,04,04,07,02,6.40
2017,04,04,07,03,6.40
2017,04,04,07,04,6.40
2017,04,04,07,05,6.40
2017,04,04,07,06,6.40
2017,04,04,07,07,6.40
2017,04,04,07,08,6.40
2017,04,04,07,09,6.40
2017,04,04,07,10,6.40
2017,04,04,07,11,6.40
2017,04,04,07,12,6.40
2017,04,04,07,13,6.40
2017,04,04,07,14,6.40
2017,04,04,07,15,6.40
2017,04,04,07,16,6.40
2017,04,04,07,17,6.40
2017,04,04,07,18,6.40
2017,04,04,07,19,6.40
2017,04,04,07,20,6.40
2017,04,04,07,21,6.40
2017,04,04,07,22,6.50
2017,04,04,07,23,6.40
2017,04,04,07,24,6.50
2017,04,04,07,25,6.50
2017,04,04,07,26,6.60
2017,04,04,07,27,6.60
2017,04,04,07,28,6.60
2017,04,04,07,29,6.60
2017,04,04,07,30,6.60
2017,04,04,07,31,6.70
2017,04,04,07,32,6.70
2017,04,04,07,33,6.70
2017,04,04,07,34,6.70
2017,04,04,07,35,6.70
2017,04,04,07,36,6.70
2017,04,04,07,37,6.70
2017,04,04,07,38,6.70
2017,04,04,07,39,6.70
2017,04,04,07,40,6.70
2017,04,04,07,41,6.70
2017,04,04,07,42,6.70
2017,04,04,07,43,6.70
2017,04,04,07,44,6.70
2017,04,04,07,45,6.60
2017,04,04,07,46,6.60
2017,04,04,07,47,6.60
2017,04,04,07,48,6.60
2017,04,04,07,49,6.60
2017,04,04,07,50,6.70
2017,04,04,07,51,6.70
2017,04,04,07,52,6.70
2017,04,04,07,53,6.70
2017,04,04,07,54,6.70
2017,04,04,07,55,6.70
2017,04,04,07,56,6.70
2017,04,04,07,57,6.70
2017,04,04,07,58,6.70
2017,04,04,07,59,6.70
2017,04,04,08,00,6.70
2017,04,04,08,01,6.80
2017,04,04,08,02,6.80
2017,04,04,08,03,6.70
2017,04,04,08,04,6.70
2017,04,04,08,05,6.70
2017,04,04,08,06,6.70
2017,04,04,08,07,6.70
2017,04,04,08,08,6.70
2017,04,04,08,09,6.70
2017,04,04,08,10,6.70
2017,04,04,08,11,6.80
2017,04,04,08,12,6.80
2017,04,04,08,13,6.80
2017,04,04,08,14,6.80
2017,04,04,08,15,6.80
2017,04,04,08,16,6.80
2017,04,04,08,17,6.80
2017,04,04,08,18,6.80
2017,04,04,08,19,6.80
2017,04,04,08,20,6.80
2017,04,04,08,21,6.90
2017,04,04,08,22,6.90
2017,04,04,08,23,6.90
2017,04,04,08,24,7.00
2017,04,04,08,25,7.00
2017,04,04,08,26,7.00
2017,04,04,08,27,7.10
2017,04,04,08,28,7.10
2017,04,04,08,29,7.10
2017,04,04,08,30,7.10
2017,04,04,08,31,7.20
2017,04,04,08,32,7.20
2017,04,04,08,33,7.20
2017,04,04,08,34,7.20
2017,04,04,08,35,7.30
2017,04,04,08,36,7.30
2017,04,04,08,37,7.30
2017,04,04,08,38,7.40
2017,04,04,08,39,7.40
2017,04,04,08,40,7.40
2017,04,04,08,41,7.50
2017,04,04,08,42,7.50
2017,04,04,08,43,7.60
2017,04,04,08,44,7.60
2017,04,04,08,45,7.70
2017,04,04,08,46,7.70
2017,04,04,08,47,7.70
2017,04,04,08,48,7.80
2017,04,04,08,49,7.80
2017,04,04,08,50,7.80
2017,04,04,08,51,7.90
2017,04,04,08,52,7.90
2017,04,04,08,53,7.90
2017,04,04,08,54,8.00
2017,04,04,08,55,8.00
2017,04,04,08,56,8.00
2017,04,04,08,57,8.00
2017,04,04,08,58,8.10
2017,04,04,08,59,8.10
2017,04,04,09,00,8.10
2017,04,04,09,01,8.10
2017,04,04,09,02,8.20
2017,04,04,09,03,8.20
2017,04,04,09,04,8.20
2017,04,04,09,05,8.20
2017,04,04,09,06,8.30
2017,04,04,09,07,8.30
2017,04,04,09,08,8.30
2017,04,04,09,09,8.40
2017,04,04,09,10,8.40
2017,04,04,09,11,8.40
2017,04,04,09,12,8.40
2017,04,04,09,13,8.40
2017,04,04,09,14,8.40
2017,04,04,09,15,8.40
2017,04,04,09,16,8.40
2017,04,04,09,17,8.50
2017,04,04,09,18,8.50
2017,04,04,09,19,8.50
2017,04,04,09,20,8.60
2017,04,04,09,21,8.60
2017,04,04,09,22,8.60
2017,04,04,09,23,8.60
2017,04,04,09,24,8.70
2017,04,04,09,25,8.70
2017,04,04,09,26,8.70
2017,04,04,09,27,8.70
2017,04,04,09,28,8.70
2017,04,04,09,29,8.70
2017,04,04,09,30,8.70
2017,04,04,09,31,8.70
2017,04,04,09,32,8.80
2017,04,04,09,33,8.80
2017,04,04,09,34,8.80
2017,04,04,09,35,8.80
2017,04,04,09,36,8.80
2017,04,04,09,37,8.80
2017,04,04,09,38,8.80
2017,04,04,09,39,8.80
2017,04,04,09,40,8.90
2017,04,04,09,41,8.90
2017,04,04,09,42,8.90
2017,04,04,09,43,8.90
2017,04,04,09,44,8.90
2017,04,04,09,45,8.90
2017,04,04,09,46,9.00
2017,04,04,09,47,9.00
2017,04,04,09,48,9.00
2017,04,04,09,49,9.10
2017,04,04,09,50,9.10
2017,04,04,09,51,9.10
2017,04,04,09,52,9.20
2017,04,04,09,53,9.20
2017,04,04,09,54,9.30
2017,04,04,09,55,9.30
2017,04,04,09,56,9.30
2017,04,04,09,57,9.40
2017,04,04,09,58,9.40
2017,04,04,09,59,9.40
2017,04,04,10,00,9.30
2017,04,04,10,01,9.30
2017,04,04,10,02,9.30
2017,04,04,10,03,9.30
2017,04,04,10,04,9.30
2017,04,04,10,05,9.40
2017,04,04,10,06,9.40
2017,04,04,10,07,9.40
2017,04,04,10,08,9.40
2017,04,04,10,09,9.40
2017,04,04,10,10,9.40
2017,04,04,10,11,9.40
2017,04,04,10,12,9.40
2017,04,04,10,13,9.50
2017,04,04,10,14,9.50
2017,04,04,10,15,9.50
2017,04,04,10,16,9.60
2017,04,04,10,17,9.60
2017,04,04,10,18,9.60
2017,04,04,10,19,9.60
2017,04,04,10,20,9.70
2017,04,04,10,21,9.70
2017,04,04,10,22,9.70
2017,04,04,10,23,9.70
2017,04,04,10,24,9.80
2017,04,04,10,25,9.80
2017,04,04,10,26,9.80
2017,04,04,10,27,9.80
2017,04,04,10,28,9.80
2017,04,04,10,29,9.80
2017,04,04,10,30,9.90
2017,04,04,10,31,9.90
2017,04,04,10,32,9.90
2017,04,04,10,33,9.90
2017,04,04,10,34,9.90
2017,04,04,10,35,9.90
2017,04,04,10,36,9.90
2017,04,04,10,37,9.90
2017,04,04,10,38,9.90
2017,04,04,10,39,9.90
2017,04,04,10,40,9.90
2017,04,04,10,41,9.90
2017,04,04,10,42,9.90
2017,04,04,10,43,9.90
2017,04,04,10,44,9.90
2017,04,04,10,45,9.90
2017,04,04,10,46,9.90
2017,04,04,10,47,10.00
2017,04,04,10,48,10.00
2017,04,04,10,49,10.10
2017,04,04,10,50,10.10
2017,04,04,10,51,10.10
2017,04,04,10,52,10.20
2017,04,04,10,53,10.20
2017,04,04,10,54,10.20
2017,04,04,10,55,10.30
2017,04,04,10,56,10.30
2017,04,04,10,57,10.30
2017,04,04,10,58,10.30
2017,04,04,10,59,10.30
2017,04,04,11,00,10.30
2017,04,04,11,01,10.30
2017,04,04,11,02,10.40
2017,04,04,11,03,10.40
2017,04,04,11,04,10.40
2017,04,04,11,05,10.40
2017,04,04,11,06,10.40
2017,04,04,11,07,10.50
2017,04,04,11,08,10.50
2017,04,04,11,09,10.50
2017,04,04,11,10,10.50
2017,04,04,11,11,10.50
2017,04,04,11,12,10.50
2017,04,04,11,13,10.60
2017,04,04,11,14,10.60
2017,04,04,11,15,10.60
2017,04,04,11,16,10.70
2017,04,04,11,17,10.70
2017,04,04,11,18,10.70
2017,04,04,11,19,10.70
2017,04,04,11,20,10.70
2017,04,04,11,21,10.70
2017,04,04,11,22,10.80
2017,04,04,11,23,10.80
2017,04,04,11,24,10.80
2017,04,04,11,25,10.90
2017,04,04,11,26,10.90
2017,04,04,11,27,10.90
2017,04,04,11,28,11.00
2017,04,04,11,29,11.00
2017,04,04,11,30,11.00
2017,04,04,11,31,11.10
2017,04,04,11,32,11.10
2017,04,04,11,33,11.10
2017,04,04,11,34,11.10
2017,04,04,11,35,11.10
2017,04,04,11,36,11.10
2017,04,04,11,37,11.10
2017,04,04,11,38,11.10
2017,04,04,11,39,11.10
2017,04,04,11,40,11.10
2017,04,04,11,41,11.20
2017,04,04,11,42,11.20
2017,04,04,11,43,11.20
2017,04,04,11,44,11.20
2017,04,04,11,45,11.20
2017,04,04,11,46,11.20
2017,04,04,11,47,11.30
2017,04,04,11,48,11.30
2017,04,04,11,49,11.30
2017,04,04,11,50,11.30
2017,04,04,11,51,11.40
2017,04,04,11,52,11.40
2017,04,04,11,53,11.40
2017,04,04,11,54,11.40
2017,04,04,11,55,11.40
2017,04,04,11,56,11.40
2017,04,04,11,57,11.50
2017,04,04,11,58,11.50
2017,04,04,11,59,11.60
2017,04,04,12,00,11.60
2017,04,04,12,01,11.60
2017,04,04,12,02,11.50
2017,04,04,12,03,11.50
2017,04,04,12,04,11.50
2017,04,04,12,05,11.50
2017,04,04,12,06,11.50
2017,04,04,12,07,11.50
2017,04,04,12,08,11.50
2017,04,04,12,09,11.50
2017,04,04,12,10,11.60
2017,04,04,12,11,11.60
2017,04,04,12,12,11.60
2017,04,04,12,13,11.70
2017,04,04,12,14,11.70
2017,04,04,12,15,11.70
2017,04,04,12,16,11.70
2017,04,04,12,17,11.60
2017,04,04,12,18,11.60
2017,04,04,12,19,11.60
2017,04,04,12,20,11.60
2017,04,04,12,21,11.60
2017,04,04,12,22,11.60
2017,04,04,12,23,11.60
2017,04,04,12,24,11.60
2017,04,04,12,25,11.70
2017,04,04,12,26,11.70
2017,04,04,12,27,11.70
2017,04,04,12,28,11.70
2017,04,04,12,29,11.80
2017,04,04,12,30,11.70
2017,04,04,12,31,11.70
2017,04,04,12,32,11.60
2017,04,04,12,33,11.60
2017,04,04,12,34,11.50
2017,04,04,12,35,11.50
2017,04,04,12,36,11.50
2017,04,04,12,37,11.50
2017,04,04,12,38,11.50
2017,04,04,12,39,11.50
2017,04,04,12,40,11.50
2017,04,04,12,41,11.60
2017,04,04,12,42,11.60
2017,04,04,12,43,11.60
2017,04,04,12,44,11.60
2017,04,04,12,45,11.70
2017,04,04,12,46,11.70
2017,04,04,12,47,11.70
2017,04,04,12,48,11.80
2017,04,04,12,49,11.90
2017,04,04,12,50,12.00
2017,04,04,12,51,12.10
2017,04,04,12,52,12.10
2017,04,04,12,53,12.20
2017,04,04,12,54,12.20
2017,04,04,12,55,12.30
2017,04,04,12,56,12.30
2017,04,04,12,57,12.30
2017,04,04,12,58,12.30
2017,04,04,12,59,12.20
2017,04,04,13,00,12.20
2017,04,04,13,01,12.20
2017,04,04,13,02,12.20
2017,04,04,13,03,12.20
2017,04,04,13,04,12.20
2017,04,04,13,05,12.20
2017,04,04,13,06,12.20
2017,04,04,13,07,12.30
2017,04,04,13,08,12.30
2017,04,04,13,09,12.30
2017,04,04,13,10,12.30
2017,04,04,13,11,12.30
2017,04,04,13,12,12.30
2017,04,04,13,13,12.30
2017,04,04,13,14,12.30
2017,04,04,13,15,12.30
2017,04,04,13,16,12.30
2017,04,04,13,17,12.20
2017,04,04,13,18,12.20
2017,04,04,13,19,12.20
2017,04,04,13,20,12.20
2017,04,04,13,21,12.10
2017,04,04,13,22,12.20
2017,04,04,13,23,12.20
2017,04,04,13,24,12.20
2017,04,04,13,25,12.20
2017,04,04,13,26,12.20
2017,04,04,13,27,12.20
2017,04,04,13,28,12.20
2017,04,04,13,29,12.20
2017,04,04,13,30,12.10
2017,04,04,13,31,12.10
2017,04,04,13,32,12.10
2017,04,04,13,33,12.10
2017,04,04,13,34,12.10
2017,04,04,13,35,12.10
2017,04,04,13,36,12.10
2017,04,04,13,37,12.10
2017,04,04,13,38,12.20
2017,04,04,13,39,12.20
2017,04,04,13,40,12.20
2017,04,04,13,41,12.20
2017,04,04,13,42,12.20
2017,04,04,13,43,12.20
2017,04,04,13,44,12.20
2017,04,04,13,45,12.20
2017,04,04,13,46,12.20
2017,04,04,13,47,12.20
2017,04,04,13,48,12.20
2017,04,04,13,49,12.20
2017,04,04,13,50,12.20
2017,04,04,13,51,12.20
2017,04,04,13,52,12.20
2017,04,04,13,53,12.20
2017,04,04,13,54,12.20
2017,04,04,13,55,12.20
2017,04,04,13,56,12.30
2017,04,04,13,57,12.30
2017,04,04,13,58,12.30
2017,04,04,13,59,12.30
2017,04,04,14,00,12.30
2017,04,04,14,01,12.30
2017,04,04,14,02,12.30
2017,04,04,14,03,12.30
2017,04,04,14,04,12.30
2017,04,04,14,05,12.40
2017,04,04,14,06,12.40
2017,04,04,14,07,12.40
2017,04,04,14,08,12.40
2017,04,04,14,09,12.40
2017,04,04,14,10,12.40
2017,04,04,14,11,12.40
2017,04,04,14,12,12.30
2017,04,04,14,13,12.30
2017,04,04,14,14,12.30
2017,04,04,14,15,12.30
2017,04,04,14,16,12.30
2017,04,04,14,17,12.20
2017,04,04,14,18,12.20
2017,04,04,14,19,12.20
2017,04,04,14,20,12.20
2017,04,04,14,21,12.20
2017,04,04,14,22,12.20
2017,04,04,14,23,12.20
2017,04,04,14,24,12.20
2017,04,04,14,25,12.20
2017,04,04,14,26,12.20
2017,04,04,14,27,12.20
2017,04,04,14,28,12.20
2017,04,04,14,29,12.20
2017,04,04,14,30,12.20
2017,04,04,14,31,12.20
2017,04,04,14,32,12.20
2017,04,04,14,33,12.20
2017,04,04,14,34,12.20
2017,04,04,14,35,12.20
2017,04,04,14,36,12.20
2017,04,04,14,37,12.20
2017,04,04,14,38,12.10
2017,04,04,14,39,12.10
2017,04,04,14,40,12.10
2017,04,04,14,41,12.00
2017,04,04,14,42,12.00
2017,04,04,14,43,11.90
2017,04,04,14,44,11.90
2017,04,04,14,45,11.90
2017,04,04,14,46,11.80
2017,04,04,14,47,11.80
2017,04,04,14,48,11.80
2017,04,04,14,49,11.80
2017,04,04,14,50,11.80
2017,04,04,14,51,11.80
2017,04,04,14,52,11.80
2017,04,04,14,53,11.80
2017,04,04,14,54,11.80
2017,04,04,14,55,11.70
2017,04,04,14,56,11.70
2017,04,04,14,57,11.70
2017,04,04,14,58,11.70
2017,04,04,14,59,11.70
2017,04,04,15,00,11.70
2017,04,04,15,01,11.70
2017,04,04,15,02,11.70
2017,04,04,15,03,11.60
2017,04,04,15,04,11.60
2017,04,04,15,05,11.60
2017,04,04,15,06,11.60
2017,04,04,15,07,11.60
2017,04,04,15,08,11.60
2017,04,04,15,09,11.60
2017,04,04,15,10,11.60
2017,04,04,15,11,11.60
2017,04,04,15,12,11.60
2017,04,04,15,13,11.60
2017,04,04,15,14,11.60
2017,04,04,15,15,11.60
2017,04,04,15,16,11.60
2017,04,04,15,17,11.50
2017,04,04,15,18,11.50
2017,04,04,15,19,11.40
2017,04,04,15,20,11.40
2017,04,04,15,21,11.40
2017,04,04,15,22,11.40
2017,04,04,15,23,11.40
2017,04,04,15,24,11.30
2017,04,04,15,25,11.30
2017,04,04,15,26,11.30
2017,04,04,15,27,11.30
2017,04,04,15,28,11.30
2017,04,04,15,29,11.30
2017,04,04,15,30,11.30
2017,04,04,15,31,11.30
2017,04,04,15,32,11.30
2017,04,04,15,33,11.30
2017,04,04,15,34,11.30
2017,04,04,15,35,11.30
2017,04,04,15,36,11.30
2017,04,04,15,37,11.20
2017,04,04,15,38,11.20
2017,04,04,15,39,11.20
2017,04,04,15,40,11.20
2017,04,04,15,41,11.20
2017,04,04,15,42,11.20
2017,04,04,15,43,11.20
2017,04,04,15,44,11.10
2017,04,04,15,45,11.10
2017,04,04,15,46,11.10
2017,04,04,15,47,11.10
2017,04,04,15,48,11.10
2017,04,04,15,49,11.10
2017,04,04,15,50,11.10
2017,04,04,15,51,11.10
2017,04,04,15,52,11.10
2017,04,04,15,53,11.10
2017,04,04,15,54,11.10
2017,04,04,15,55,11.10
2017,04,04,15,56,11.20
2017,04,04,15,57,11.20
2017,04,04,15,58,11.20
2017,04,04,15,59,11.20
2017,04,04,16,00,11.20
2017,04,04,16,01,11.20
2017,04,04,16,02,11.20
2017,04,04,16,03,11.20
2017,04,04,16,04,11.20
2017,04,04,16,05,11.10
2017,04,04,16,06,11.10
2017,04,04,16,07,11.10
2017,04,04,16,08,11.10
2017,04,04,16,09,11.10
2017,04,04,16,10,11.00
2017,04,04,16,11,11.00
2017,04,04,16,12,11.00
2017,04,04,16,13,11.00
2017,04,04,16,14,10.90
2017,04,04,16,15,10.90
2017,04,04,16,16,10.90
2017,04,04,16,17,10.90
2017,04,04,16,18,10.90
2017,04,04,16,19,10.90
2017,04,04,16,20,10.90
2017,04,04,16,21,10.90
2017,04,04,16,22,10.90
2017,04,04,16,23,10.90
2017,04,04,16,24,10.90
2017,04,04,16,25,10.90
2017,04,04,16,26,10.90
2017,04,04,16,27,10.90
2017,04,04,16,28,11.00
2017,04,04,16,29,11.00
2017,04,04,16,30,11.00
2017,04,04,16,31,11.00
2017,04,04,16,32,11.00
2017,04,04,16,33,11.00
2017,04,04,16,34,11.00
2017,04,04,16,35,11.00
2017,04,04,16,36,11.10
2017,04,04,16,37,11.10
2017,04,04,16,38,11.10
2017,04,04,16,39,11.10
2017,04,04,16,40,11.20
2017,04,04,16,41,11.20
2017,04,04,16,42,11.20
2017,04,04,16,43,11.20
2017,04,04,16,44,11.20
2017,04,04,16,45,11.20
2017,04,04,16,46,11.20
2017,04,04,16,47,11.20
2017,04,04,16,48,11.20
2017,04,04,16,49,11.20
2017,04,04,16,50,11.20
2017,04,04,16,51,11.20
2017,04,04,16,52,11.20
2017,04,04,16,53,11.20
2017,04,04,16,54,11.20
2017,04,04,16,55,11.20
2017,04,04,16,56,11.20
2017,04,04,16,57,11.20
2017,04,04,16,58,11.20
2017,04,04,16,59,11.20
2017,04,04,17,00,11.20
2017,04,04,17,01,11.20
2017,04,04,17,02,11.20
2017,04,04,17,03,11.20
2017,04,04,17,04,11.20
2017,04,04,17,05,11.20
2017,04,04,17,06,11.20
2017,04,04,17,07,11.20
2017,04,04,17,08,11.10
2017,04,04,17,09,11.10
2017,04,04,17,10,11.10
2017,04,04,17,11,11.10
2017,04,04,17,12,11.10
2017,04,04,17,13,11.10
2017,04,04,17,14,11.10
2017,04,04,17,15,11.10
2017,04,04,17,16,11.00
2017,04,04,17,17,11.00
2017,04,04,17,18,10.90
2017,04,04,17,19,10.90
2017,04,04,17,20,10.90
2017,04,04,17,21,10.80
2017,04,04,17,22,10.80
2017,04,04,17,23,10.80
2017,04,04,17,24,10.80
2017,04,04,17,25,10.80
2017,04,04,17,26,10.80
2017,04,04,17,27,10.80
2017,04,04,17,28,10.80
2017,04,04,17,29,10.70
2017,04,04,17,30,10.70
2017,04,04,17,31,10.70
2017,04,04,17,32,10.70
2017,04,04,17,33,10.70
2017,04,04,17,34,10.70
2017,04,04,17,35,10.70
2017,04,04,17,36,10.70
2017,04,04,17,37,10.70
2017,04,04,17,38,10.70
2017,04,04,17,39,10.80
2017,04,04,17,40,10.80
2017,04,04,17,41,10.80
2017,04,04,17,42,10.80
2017,04,04,17,43,10.80
2017,04,04,17,44,10.80
2017,04,04,17,45,10.70
2017,04,04,17,46,10.70
2017,04,04,17,47,10.70